Location: Melara
(45.0500°N, 11.1833°E)
Time: 23:54:39
(UTC+00:00)

SME Rocket - Pass Details

Date: 26 May 2022
Orbit: 551 x 2650 km, 99.9° (Epoch: 02 July)

Event Time Altitude Azimuth Distance (km) Brightness Sun altitude
Exits shadow 01:24:37 29° 246° (WSW) 1,137 3.9 -17.3°
Maximum altitude 01:25:17 31° 265° (W) 1,122 4.0 -17.2°
Drops below altitude 10° 01:29:31 10° 328° (NNW) 2,314 6.3 -16.8°
Sets 01:32:28 0° 338° (NNW) 3,507 7.4 -16.6°
